Weather History for St. Joseph, MO

Change the Weather History Date:

Sunday, October 28, 2012

  Actual Average Record
Temperature  
Mean Temperature 38 °F 50 °F  
Max Temperature 52 °F 62 °F 85 °F (1927)
Min Temperature 24 °F 39 °F 14 °F (1925)
Degree Days  
Heating Degree Days 27 15  
Month to date heating degree days 335 291  
Since 1 July heating degree days 445 371  
Cooling Degree Days 0 0  
Month to date cooling degree days 29 18  
Year to date cooling degree days 1560 1217  
Moisture  
Dew Point 26 °F    
Average Humidity 62    
Maximum Humidity 85    
Minimum Humidity 38    
Precipitation  
Precipitation 0.00 in 0.08 in 1.42 in (1982)
Month to date precipitation 1.65 2.58  
Year to date precipitation 20.52 32.30  
Sea Level Pressure  
Sea Level Pressure 30.32 in    
Wind  
Wind Speed 3 mph (ESE)    
Max Wind Speed 9 mph    
Max Gust Speed 10 mph    
Visibility 10 miles    
Events      
T = Trace of Precipitation, MM = Missing Value Source: NWS Daily Summary

Daily Weather History Graph

Daily Weather History Graph

Search for Another Location

Airport:

Trip Planner

Search our weather history database for the weather conditions in past years. The results will help you decide how hot, cold, wet, or windy it might be!

Date:

Astronomy

Oct. 28, 2012 Rise Set
Actual Time 7:44 AM CDT 6:21 PM CDT
Civil Twilight 7:16 AM CDT 6:49 PM CDT
Nautical Twilight 6:44 AM CDT 7:21 PM CDT
Astronomical Twilight 6:13 AM CDT 7:52 PM CDT
Moon 5:40 PM CDT (10/28) 6:38 AM CDT (10/28)
Length of Visible Light 11h 32m
Length of Day
10h 37m
Waxing Gibbous, 99% of the Moon is Illuminated
Oct 28
Waxing Gibbous
Oct 29
Full
Nov 6
Last Quarter
Nov 13
New
Nov 20
First Quarter

Hourly Weather History & Observations

Time (CDT) Temp. Windchill Dew Point Humidity Pressure Visibility Wind Dir Wind Speed Gust Speed Precip Events Conditions
12:53 AM 33.1 °F 30.0 °F 26.1 °F 75% 30.34 in 10.0 mi NNW 3.5 mph - N/A   Clear
1:53 AM 30.9 °F - 25.0 °F 79% 30.34 in 10.0 mi Calm Calm - N/A   Partly Cloudy
2:53 AM 28.9 °F 23.9 °F 23.0 °F 78% 30.34 in 10.0 mi North 4.6 mph - N/A   Clear
3:53 AM 27.0 °F - 21.0 °F 78% 30.33 in 9.0 mi Calm Calm - N/A   Clear
4:53 AM 27.0 °F - 21.9 °F 81% 30.32 in 10.0 mi Calm Calm - N/A   Overcast
5:53 AM 30.0 °F - 24.1 °F 79% 30.34 in 9.0 mi Calm Calm - N/A   Mostly Cloudy
6:53 AM 30.0 °F - 24.1 °F 79% 30.35 in 10.0 mi Calm Calm - N/A   Scattered Clouds
7:53 AM 26.1 °F - 21.0 °F 81% 30.36 in 10.0 mi Calm Calm - N/A   Clear
8:53 AM 30.0 °F - 26.1 °F 85% 30.39 in 10.0 mi Calm Calm - N/A   Clear
9:53 AM 37.0 °F - 28.0 °F 70% 30.39 in 10.0 mi Calm Calm - N/A   Clear
10:53 AM 43.0 °F 41.3 °F 27.0 °F 53% 30.38 in 10.0 mi South 3.5 mph - N/A   Clear
12:53 PM 46.9 °F - 26.1 °F 44% 30.34 in 10.0 mi Variable 4.6 mph - N/A   Clear
1:53 PM 50.0 °F - 26.1 °F 39% 30.31 in 10.0 mi Variable 5.8 mph - N/A   Clear
2:53 PM 50.0 °F - 27.0 °F 41% 30.29 in 10.0 mi Calm Calm - N/A   Clear
3:53 PM 51.1 °F - 27.0 °F 39% 30.28 in 10.0 mi SSE 3.5 mph - N/A   Clear
4:53 PM 51.1 °F - 27.0 °F 39% 30.27 in 10.0 mi ESE 3.5 mph - N/A   Clear
5:53 PM 50.0 °F - 27.0 °F 41% 30.27 in 10.0 mi ESE 4.6 mph - N/A   Clear
6:53 PM 45.0 °F 41.8 °F 27.0 °F 49% 30.28 in 10.0 mi East 5.8 mph - N/A   Clear
7:53 PM 43.0 °F 40.3 °F 27.0 °F 53% 30.29 in 10.0 mi ESE 4.6 mph - N/A   Clear
8:53 PM 37.9 °F 34.4 °F 26.1 °F 62% 30.29 in 10.0 mi SE 4.6 mph - N/A   Clear
9:53 PM 39.0 °F 34.8 °F 26.1 °F 60% 30.29 in 10.0 mi SE 5.8 mph - N/A   Clear
10:53 PM 42.1 °F 37.1 °F 26.1 °F 53% 30.29 in 10.0 mi SE 8.1 mph - N/A   Overcast
11:53 PM 42.1 °F 39.2 °F 27.0 °F 55% 30.30 in 10.0 mi SE 4.6 mph - N/A   Mostly Cloudy